Wind_Speed
24 22 25 21 18 20 20 16 15 13 14 14 13 13 12 13 16 16 16 16 19 21 23 24 23 21 21 20 18 18 20 20 20 20 17 16 16 17 18 16 15 15 13 11 11 11 9 7 7 6 7 7 7 6 5 5 6 5 6 7 5 6 8 9 9 9 9 9 10 11 10 9 8 7 7 7 6 5 5 5 4 4 4 4 4
24 27 27 19 16 20 22 17 12 11 14 19 21 20 18 19 20 20 21 21 23 24 26 27 26 23 20 17 18 21 22 23 22 20 18 16 16 17 18 16 14 14 13 11 10 9 9 7 7 8 7 7 6 6 6 6 6 6 5 5 5 7 8 9 11 10 10 11 11 10 8 8 8 7 5 6 6 4 4 5 4 4 3 2 3
29 28 23 18 18 21 23 20 13 10 15 23 24 22 19 19 19 19 20 21 21 21 22 26 26 22 19 20 22 23 23 22 19 18 17 16 16 17 17 16 14 13 13 12 11 10 9 8 10 9 6 6 6 6 6 7 7 6 6 6 6 9 10 11 13 12 12 12 10 9 9 8 8 7 5 5 5 4 4 5 4 5 4 3 3
30 28 23 19 19 21 23 23 17 14 19 24 24 22 18 15 14 15 15 16 16 14 15 21 23 22 22 25 24 21 21 20 18 17 17 16 17 18 16 15 13 13 13 12 11 11 10 9 9 8 6 6 6 6 7 8 8 8 8 8 9 10 11 12 14 13 12 11 10 9 9 8 8 7 6 6 5 6 6 5 5 5 5 5 4
31 26 22 21 20 22 26 28 27 27 25 25 24 20 17 15 16 16 13 12 11 11 14 19 21 21 22 24 24 22 20 20 20 20 20 18 18 19 17 15 14 14 13 12 11 11 10 9 8 8 7 7 7 8 9 9 9 9 9 10 10 10 11 12 12 12 11 10 9 9 9 9 8 8 8 7 7 7 7 6 6 6 6 6 5
32 26 22 21 21 24 29 34 39 37 28 23 23 20 19 21 22 21 17 15 14 13 17 19 19 20 20 23 24 23 21 22 22 23 22 20 19 20 20 18 16 15 15 14 13 12 10 9 10 10 9 8 8 9 10 10 10 10 11 11 10 10 11 11 10 10 10 10 9 9 10 9 9 9 9 8 8 9 8 7 7 8 8 7 7
31 28 24 21 22 27 33 36 42 40 28 23 25 21 21 24 26 24 20 18 18 18 20 20 19 19 20 22 22 22 22 23 24 24 22 20 20 21 20 18 17 16 17 14 13 12 11 11 12 10 9 9 10 11 11 12 11 11 12 11 11 10 10 10 10 9 9 10 10 10 10 10 9 9 9 9 9 9 8 9 9 9 9 9 9
31 30 27 25 25 29 37 38 40 41 32 27 28 23 20 24 26 25 21 19 20 19 20 21 20 19 19 20 21 21 22 23 24 23 21 19 19 21 19 18 16 16 16 14 12 12 12 12 11 10 10 10 11 11 12 12 12 12 12 11 10 9 9 9 9 9 9 9 9 9 10 10 10 10 10 10 11 11 10 10 9 9 9 10 9
30 30 28 27 26 29 37 37 36 40 35 28 28 25 23 26 27 26 23 22 21 20 21 22 21 21 20 21 22 23 23 22 22 21 20 19 19 19 19 17 14 14 15 14 13 12 13 12 11 10 10 10 11 10 11 11 12 12 11 9 9 8 9 9 8 8 9 9 9 9 9 10 11 11 11 11 11 11 10 10 9 9 9 9 9
29 30 28 28 29 30 33 33 32 36 34 28 29 28 26 28 28 25 24 22 18 15 17 20 21 21 20 20 22 23 22 21 21 22 21 21 21 20 18 16 14 14 14 13 12 13 13 13 12 10 11 11 11 9 10 11 11 11 10 8 9 8 8 9 8 8 9 9 9 10 10 10 11 11 11 12 11 11 10 10 9 10 10 9 9
28 29 28 28 30 29 30 30 29 32 31 26 27 27 26 27 25 22 21 21 22 18 14 16 17 17 16 16 19 21 21 21 22 23 23 22 22 20 19 18 16 16 15 14 14 15 14 13 12 11 11 11 10 9 9 10 10 10 9 9 9 8 9 9 9 9 10 10 11 11 12 12 12 11 12 12 12 11 11 10 11 11 10 9 9
28 30 30 30 32 31 32 31 30 32 30 24 23 23 24 24 22 20 18 19 25 25 20 18 18 16 15 14 15 16 18 20 21 22 23 22 22 21 21 20 18 17 17 16 16 17 15 13 11 11 10 10 9 8 8 9 9 9 9 10 10 9 9 10 10 10 11 11 12 12 13 13 13 13 13 13 13 13 12 12 12 12 11 10 11
30 31 32 33 34 34 34 33 31 30 27 23 24 23 21 20 19 18 16 17 22 22 20 20 19 18 17 16 14 13 15 18 20 21 22 23 22 22 23 21 19 18 17 17 17 17 14 13 11 11 10 9 8 8 8 9 9 9 9 10 10 10 10 10 10 10 11 11 12 12 13 13 14 14 13 13 14 14 14 13 13 13 12 12 12
30 32 33 34 34 32 32 32 30 27 26 27 27 24 20 19 19 17 14 17 19 18 18 18 18 18 17 17 16 15 16 18 19 20 22 23 22 22 23 22 20 19 19 18 18 16 14 12 11 11 10 9 9 9 9 9 9 9 9 9 9 9 9 8 9 9 9 10 11 11 12 12 13 14 14 14 15 14 14 14 13 13 13 13 13
27 30 32 33 33 31 29 30 29 26 28 31 29 25 22 21 20 18 15 17 17 17 17 18 17 18 18 18 17 17 18 18 19 19 21 22 22 23 23 21 19 19 20 19 17 15 13 12 12 11 10 10 10 10 9 9 8 9 9 9 8 8 8 8 9 9 10 10 11 11 11 12 14 14 14 15 14 14 14 14 14 14 14 14 14
27 27 27 28 27 26 26 27 29 31 33 34 32 27 25 24 23 21 18 17 17 17 18 19 19 19 19 20 18 18 19 20 20 19 20 20 21 23 22 20 19 20 20 19 16 14 13 13 13 13 12 12 11 11 10 9 9 9 10 10 9 9 10 11 12 12 12 13 13 13 12 13 15 15 14 15 15 15 15 15 15 15 15 15 15
23 22 22 23 23 24 25 25 30 35 36 34 31 26 23 23 23 22 19 18 18 18 19 20 20 21 22 21 19 19 20 22 22 20 19 19 20 21 21 19 19 20 20 19 16 15 15 15 14 14 14 13 13 12 11 11 11 11 11 11 12 12 13 14 14 14 15 15 15 14 14 14 15 15 15 15 15 16 15 15 15 16 16 16 14
18 17 17 19 19 21 23 23 26 30 31 27 24 22 21 22 24 25 24 21 20 20 20 21 22 23 24 23 20 19 20 22 22 20 18 18 18 18 18 19 20 20 21 19 17 17 18 18 17 16 15 15 14 14 13 13 13 12 12 13 14 14 15 15 15 15 15 15 15 15 14 15 16 16 16 15 15 15 15 15 15 15 16 16 14
18 16 16 15 15 16 19 23 23 22 21 21 21 21 21 22 24 26 27 27 26 24 22 22 23 24 25 24 21 19 19 19 19 18 18 18 17 16 16 19 21 21 21 19 17 17 19 21 20 18 17 17 16 16 15 15 14 14 13 13 14 14 14 15 15 15 15 15 15 15 15 15 16 16 16 15 15 15 15 15 15 15 16 16 15
16 17 16 16 16 16 17 20 18 14 14 18 21 22 21 22 24 26 28 29 29 28 25 24 24 24 23 21 20 20 19 18 17 17 16 16 17 16 15 16 17 19 19 18 18 19 20 21 21 19 17 17 17 17 16 16 15 14 14 13 13 14 14 14 14 13 13 14 14 14 15 15 16 16 16 16 16 16 16 15 16 16 17 17 17
15 16 17 17 20 19 17 15 14 12 14 17 19 20 21 22 24 26 27 25 24 26 26 24 24 23 21 20 19 20 20 18 17 16 15 15 15 16 15 15 15 15 16 16 18 18 18 19 19 18 17 17 17 17 16 16 15 14 14 14 14 14 14 13 13 13 13 14 15 15 15 16 16 16 16 17 17 18 18 17 17 18 20 20 19
17 18 19 20 22 20 15 12 13 15 15 16 18 19 21 23 24 26 26 24 22 24 25 24 23 22 20 19 19 20 20 18 17 16 16 16 16 16 16 16 15 15 15 16 16 16 16 17 18 17 17 17 17 17 17 16 15 15 15 16 16 15 15 14 13 14 14 15 16 16 16 17 18 18 18 18 19 20 20 19 20 21 22 23 22
21 21 22 23 24 21 15 12 12 14 14 16 18 20 21 23 25 26 27 26 25 25 25 24 22 19 19 19 19 19 19 18 18 18 18 18 17 17 17 16 16 15 15 16 16 15 16 17 17 16 16 16 17 17 17 16 16 17 17 18 17 17 16 16 15 15 15 16 17 17 18 18 18 18 19 19 20 21 21 21 22 23 24 25 24
24 24 25 26 26 26 23 19 16 16 16 17 18 20 22 23 25 27 28 29 29 27 25 24 23 21 20 21 20 19 19 20 20 20 19 18 16 16 16 17 16 15 15 16 16 16 16 16 16 16 17 17 17 17 17 17 17 18 18 18 18 18 18 18 17 17 17 17 17 18 18 19 19 19 19 19 20 21 21 22 23 25 26 26 25
23 25 27 29 29 28 25 22 20 19 18 18 19 20 22 23 25 26 27 28 28 28 26 24 25 24 21 20 20 19 19 20 20 19 18 16 15 15 16 17 17 16 17 17 17 17 18 18 18 18 17 17 17 17 17 18 19 19 19 18 18 19 19 19 19 18 18 17 17 18 19 19 19 19 19 19 20 21 21 21 23 25 26 27 27
20 23 26 28 29 27 22 20 20 19 18 18 18 20 21 23 24 24 24 24 22 22 25 24 24 24 21 20 20 19 17 18 18 17 16 15 14 15 16 17 17 17 18 19 19 20 20 20 20 19 19 19 19 19 19 20 19 19 18 18 19 19 19 20 19 19 18 19 19 19 20 20 20 20 20 20 21 21 21 22 22 23 26 27 28
18 21 24 25 26 24 20 19 19 18 17 17 18 19 20 22 23 23 23 22 18 19 23 24 24 24 21 20 21 21 20 20 19 18 16 15 14 14 15 16 16 18 19 20 21 21 21 21 20 20 20 20 20 20 20 20 20 19 19 19 19 19 19 19 18 19 20 20 20 20 21 21 21 21 21 21 21 22 22 22 22 22 23 26 28
16 18 20 22 23 22 19 18 17 17 16 16 17 18 19 21 23 22 21 21 20 19 21 23 24 24 22 22 22 22 22 21 20 19 17 16 15 14 14 15 17 18 20 21 21 22 21 21 21 20 20 20 20 20 20 20 20 20 20 19 19 18 19 18 19 20 20 21 21 21 21 22 22 22 22 22 22 22 22 22 22 22 22 24 27
15 16 17 18 19 19 17 16 16 15 15 15 16 17 18 21 21 20 19 19 19 20 20 22 24 24 23 23 23 24 22 21 20 20 17 16 16 15 15 16 17 19 20 20 21 21 21 22 22 21 21 21 20 19 20 20 20 20 20 19 19 19 19 19 20 20 21 21 21 21 22 22 22 22 22 23 23 23 23 22 22 22 22 23 25
15 16 16 18 18 17 16 15 15 15 15 14 15 16 18 21 20 18 18 17 17 19 21 21 21 21 22 23 24 24 22 21 20 20 18 18 17 15 15 16 17 18 20 20 21 22 22 23 23 23 23 22 21 21 21 20 20 20 20 20 19 20 20 20 20 21 21 20 19 19 20 19 19 20 21 21 22 22 23 23 22 22 22 23 24
15 16 17 18 18 17 16 15 15 15 14 13 13 15 18 20 20 17 15 14 13 16 19 20 19 19 20 22 23 22 21 20 21 20 20 20 19 18 16 16 17 18 19 20 22 23 23 24 24 25 24 23 23 23 22 20 20 20 20 20 20 21 21 21 20 20 19 18 17 18 18 18 19 20 20 19 20 21 23 24 24 23 23 23 24
15 15 17 18 19 18 16 15 15 15 14 13 13 15 18 20 20 17 14 12 11 12 15 17 17 17 18 20 20 19 19 19 20 21 21 21 21 19 17 17 16 16 17 20 22 23 23 23 24 24 24 24 24 24 23 21 20 20 20 21 21 22 22 21 20 18 17 16 17 18 19 21 23 22 20 19 19 20 21 22 23 23 23 23 24
15 16 17 18 18 18 16 15 14 14 14 13 14 16 17 17 17 17 15 13 11 10 12 13 14 15 16 17 17 17 17 18 17 17 17 19 21 20 17 15 15 15 16 19 20 22 23 23 22 22 23 25 26 25 23 23 22 22 21 21 22 22 22 21 20 18 15 13 15 17 18 20 22 23 23 22 21 21 21 21 21 21 22 23 24
17 18 18 18 19 18 17 15 15 14 14 14 15 16 16 15 14 14 15 14 13 12 12 12 13 14 14 15 16 16 17 17 17 15 14 16 19 21 19 16 16 16 17 18 20 21 23 24 22 21 22 25 25 25 25 25 25 24 22 22 22 21 21 21 20 19 17 14 15 17 18 19 21 23 24 23 23 23 23 22 21 21 23 25 25
19 20 20 20 20 19 18 17 16 15 14 15 16 17 16 15 14 14 14 14 14 14 13 13 14 15 15 16 17 17 17 17 17 17 17 17 19 23 22 19 19 19 19 20 20 20 22 23 22 22 22 24 25 25 26 27 27 26 24 24 22 20 21 22 22 21 20 19 19 20 20 20 21 23 24 24 24 24 24 24 23 24 26 28 28
21 22 22 22 21 21 20 19 18 18 17 16 17 18 17 16 15 15 14 13 14 15 14 14 14 14 15 16 17 17 18 18 18 18 19 19 20 21 21 20 19 19 19 20 20 19 19 19 19 20 21 22 25 27 27 26 27 27 26 25 23 22 22 23 23 23 23 22 22 23 24 24 25 26 27 28 28 27 27 27 26 27 28 28 28
22 23 24 23 23 23 22 22 21 21 20 19 19 19 19 17 16 16 16 14 14 15 14 14 14 13 12 14 16 17 17 18 19 19 20 21 20 19 19 21 21 20 19 20 20 20 19 18 18 19 20 22 24 26 26 26 27 28 26 24 24 24 24 24 25 25 25 25 25 25 26 28 29 29 29 30 31 30 30 30 30 30 31 31 31
24 25 25 25 25 25 25 24 23 23 23 22 21 20 21 20 19 19 19 18 17 16 16 15 14 13 13 14 15 16 18 19 19 20 22 22 21 21 21 21 22 22 21 21 21 20 19 19 19 20 22 23 23 24 26 27 26 25 24 24 25 25 25 25 26 27 28 29 29 28 29 30 31 32 32 33 33 32 32 32 31 32 34 36 36
26 26 27 27 26 26 26 25 24 23 24 24 23 22 22 23 23 22 22 21 21 20 19 18 17 17 17 17 15 14 17 18 19 20 21 20 20 20 21 21 22 22 22 22 21 21 20 19 19 20 21 22 21 22 23 23 22 23 23 25 26 26 26 26 27 28 30 30 31 31 31 32 33 34 35 36 36 35 34 33 33 35 37 38 38
27 28 29 29 28 28 28 27 26 24 25 26 26 25 24 24 25 24 24 23 23 23 22 22 21 21 21 22 20 19 19 19 20 21 21 21 21 21 21 22 22 22 23 22 21 20 20 19 19 19 20 19 19 20 21 21 22 24 24 25 25 26 26 27 27 29 30 31 32 34 34 34 36 36 37 37 37 37 37 37 37 39 41 41 41
30 30 30 30 30 29 29 28 27 26 25 26 27 27 26 26 26 27 26 25 25 25 24 24 25 24 24 25 26 26 26 25 25 25 24 24 24 24 24 24 24 22 22 22 21 20 19 18 18 18 18 18 19 21 21 22 22 23 23 23 24 25 26 27 29 31 32 32 34 36 37 37 37 38 38 39 39 40 41 42 43 44 45 46 47
33 33 33 32 32 31 29 29 29 27 26 26 28 29 28 28 29 30 29 29 28 27 27 26 26 26 26 26 26 27 27 28 28 27 26 25 25 25 25 25 25 24 22 20 20 19 18 17 17 18 18 19 21 21 22 22 23 25 26 26 27 28 29 31 32 34 35 36 37 39 40 40 41 42 43 45 46 46 47 49 50 51 51 52 53
35 36 35 34 33 32 30 30 29 28 27 26 26 28 29 28 29 31 32 32 31 30 30 29 28 27 28 27 28 28 28 28 28 28 27 26 26 25 25 25 26 25 25 24 23 23 24 23 23 24 24 25 25 25 26 26 27 29 31 32 33 34 35 36 37 38 39 40 41 42 43 44 45 47 47 48 49 49 50 51 52 53 54 55 55
34 35 35 34 33 32 32 32 31 29 28 26 23 23 26 28 29 30 31 32 32 31 31 31 30 29 29 29 29 29 28 28 28 27 27 27 27 27 26 26 25 26 27 27 28 29 30 30 30 29 29 29 30 30 30 31 33 33 35 36 37 38 38 39 39 40 41 42 43 43 44 45 46 46 47 48 49 50 51 52 53 54 56 57 58
29 30 31 32 34 34 34 33 32 30 29 27 24 23 22 22 24 26 26 25 24 25 27 29 29 28 28 28 28 28 27 26 26 26 27 28 28 28 28 28 28 28 28 29 30 30 31 31 31 31 30 31 32 32 32 34 36 36 36 38 38 38 39 39 40 41 42 43 44 45 45 46 47 48 49 50 51 52 53 54 55 56 57 58 59
24 25 26 27 30 33 35 34 33 32 31 30 29 28 25 21 22 24 25 23 22 22 24 26 27 27 28 29 29 29 29 29 29 29 30 30 30 31 31 31 31 31 31 31 31 31 32 32 32 32 32 32 31 31 31 34 35 36 37 38 38 39 39 40 41 42 43 44 45 46 47 48 49 51 52 53 53 54 55 56 57 58 59 60 61
26 26 26 26 27 30 32 33 33 33 33 33 33 32 31 29 27 26 27 28 27 26 25 27 28 29 29 30 30 31 31 31 31 32 32 32 33 33 34 34 34 33 33 33 33 33 33 33 33 34 33 33 33 32 33 34 35 36 37 38 39 40 41 41 42 43 45 46 47 49 50 52 53 54 55 56 58 59 59 59 61 62 63 64 65
28 27 27 28 27 28 29 31 31 32 32 33 33 33 33 34 33 31 29 29 30 29 29 30 31 31 31 31 32 32 32 32 32 32 32 32 33 33 33 34 34 34 34 34 34 33 33 33 34 35 34 34 35 36 36 36 37 36 37 38 39 41 42 43 44 46 48 49 51 52 54 55 57 58 59 61 62 63 64 65 65 66 67 68 69
28 28 28 28 28 28 28 28 29 30 30 31 32 31 30 31 33 33 31 31 32 32 31 29 28 28 29 30 30 30 31 31 31 32 32 32 32 33 33 33 33 33 33 33 33 33 34 34 35 36 35 35 36 37 38 39 39 39 40 41 42 43 44 46 48 49 51 53 54 56 57 58 60 61 62 63 64 65 67 68 68 69 69 70 71
27 28 28 28 28 27 27 27 27 28 28 29 29 29 29 30 31 33 33 33 33 32 31 29 28 28 29 29 29 29 30 30 30 30 31 31 32 33 32 32 32 32 32 34 35 35 36 36 36 37 37 37 37 38 39 40 41 43 44 45 46 48 49 51 52 54 55 56 58 59 60 61 62 63 64 65 66 67 68 68 69 69 69 70 70
26 26 27 27 27 26 26 27 27 27 28 29 29 30 31 31 31 32 33 34 33 33 32 32 32 32 33 33 32 32 33 34 34 34 35 35 36 36 36 36 37 37 37 37 37 37 37 37 37 37 38 38 39 40 42 43 45 46 48 49 51 52 53 54 56 57 58 58 59 60 62 63 64 65 66 67 68 68 68 68 68 69 69 69 70
Wind_Direction
242 262 281 281 273 248 231 214 196 208 242 254 259 249 227 220 220 212 209 203 199 204 210 216 221 222 229 240 246 246 244 245 247 248 247 244 248 252 254 257 257 260 264 264 265 263 255 238 236 267 276 258 243 235 244 245 241 245 231 230 244 245 246 250 254 255 251 254 261 267 274 278 279 279 284 292 294 298 304 313 331 343 353 3 8
256 271 278 275 258 232 225 227 200 194 240 255 252 242 223 216 219 215 213 212 209 211 213 215 217 216 219 230 239 244 248 251 252 252 252 249 250 253 255 258 259 262 266 262 260 255 240 233 258 278 272 258 253 242 240 240 245 248 228 225 241 245 251 255 259 260 258 258 261 264 265 265 272 276 271 274 284 297 301 304 318 325 327 346 356
266 268 273 274 258 233 225 234 231 214 244 257 248 237 230 226 228 225 220 218 218 219 222 219 214 215 220 225 233 242 249 255 257 256 255 255 256 257 258 259 260 266 269 263 253 244 240 252 269 270 253 254 265 252 250 256 258 259 252 250 256 260 264 262 262 264 260 258 258 256 257 258 264 274 275 271 279 291 290 291 303 311 308 314 341
266 267 270 269 258 244 235 237 249 250 250 249 242 241 242 237 239 239 231 229 233 241 243 230 222 226 231 231 239 249 251 256 263 263 260 261 262 261 263 264 264 269 268 258 249 245 253 263 262 256 249 255 262 254 257 267 270 270 271 272 270 268 268 265 263 263 256 253 252 252 255 258 259 268 275 272 274 278 280 285 293 295 293 304 317
261 266 266 261 256 251 243 242 251 259 257 245 243 253 257 254 257 258 253 247 252 261 255 245 243 247 244 240 247 257 258 257 260 263 263 265 266 265 267 268 268 269 261 255 257 258 263 266 254 248 249 249 252 254 255 261 270 274 275 275 273 271 267 262 258 255 251 249 248 248 251 254 254 257 261 263 266 271 274 277 280 281 282 294 295
258 262 261 256 254 254 252 251 251 256 262 252 250 262 265 263 262 262 263 258 257 256 249 249 253 254 249 246 251 257 257 254 253 257 261 263 267 269 269 267 267 266 258 257 265 266 264 260 254 252 250 250 252 256 259 264 270 273 275 274 273 270 264 257 254 250 248 249 249 250 251 252 251 253 257 260 263 268 272 273 275 277 278 280 279
256 259 259 251 248 251 253 253 248 250 261 258 253 260 264 266 264 261 263 260 255 250 247 252 256 252 247 246 251 254 253 251 249 252 259 264 267 268 268 265 263 261 256 253 254 257 253 247 249 254 256 257 260 262 266 268 268 268 269 270 269 265 261 259 258 254 251 252 252 252 253 253 252 254 260 263 266 270 273 275 275 277 280 281 280
253 256 257 250 245 246 248 249 243 245 257 261 258 262 265 267 266 262 262 258 256 256 253 258 259 252 248 247 250 254 254 252 250 254 261 265 265 265 266 265 262 258 253 246 246 250 252 249 248 253 257 260 264 268 271 269 266 263 259 258 258 258 260 260 260 259 258 257 257 257 257 258 258 257 260 263 266 269 270 271 272 272 276 280 280
253 254 256 253 247 241 245 248 241 244 256 260 259 264 263 264 266 267 268 261 260 266 259 256 255 249 248 251 251 254 257 255 256 261 264 262 262 262 263 262 262 261 253 245 250 254 253 255 254 253 258 261 265 271 273 268 263 258 251 247 249 250 254 258 257 257 259 263 264 263 263 264 262 258 257 259 262 268 271 271 271 271 273 276 276
255 254 255 253 248 240 244 249 244 247 255 256 259 264 263 264 265 268 272 262 253 263 262 254 250 246 247 249 250 253 256 257 259 263 263 264 264 262 260 257 259 263 253 240 250 259 253 253 255 255 259 262 266 269 268 262 253 246 242 241 244 246 252 259 261 259 262 268 270 269 268 266 264 263 263 264 266 269 271 272 274 277 279 280 279
258 258 257 254 251 244 244 248 245 248 252 250 256 262 262 264 267 270 276 264 243 242 260 263 255 249 250 253 252 250 252 257 260 261 263 266 267 264 259 257 261 261 248 238 253 262 255 251 251 253 255 258 262 260 253 252 244 237 236 238 242 245 251 258 262 264 265 267 268 268 268 266 266 266 265 267 272 275 276 276 276 280 284 284 283
267 267 263 259 256 250 245 242 239 242 246 243 246 256 261 266 271 274 279 269 251 247 257 265 260 255 256 262 261 253 251 258 261 261 263 265 266 263 259 260 263 256 244 245 257 257 250 249 251 254 254 253 252 249 242 240 240 240 239 240 243 246 250 255 259 262 263 263 264 266 266 266 266 265 264 268 274 278 278 276 278 283 284 281 279
268 267 264 261 260 255 249 243 237 237 241 242 242 247 254 260 265 272 275 269 261 257 257 260 260 258 257 263 269 265 261 264 265 263 263 264 263 260 257 258 257 252 246 251 256 251 245 247 253 256 256 249 241 238 238 237 239 244 246 247 248 247 247 250 253 256 258 260 261 262 263 265 265 267 270 275 277 277 275 274 279 283 281 279 278
263 263 264 262 260 257 250 242 236 234 235 240 242 241 243 248 252 259 263 258 261 263 257 253 257 259 259 263 268 270 271 271 269 262 260 262 260 255 253 253 251 248 247 251 251 246 244 249 254 257 254 248 238 231 232 236 241 246 248 249 249 248 248 246 249 253 256 259 259 262 265 267 269 273 276 278 278 275 274 276 280 279 277 278 278
260 262 263 260 258 256 246 234 229 228 231 234 237 235 233 235 239 242 244 246 253 257 250 246 255 262 262 263 266 268 269 271 270 261 259 261 256 252 251 248 246 244 243 245 244 240 243 249 255 257 250 243 237 232 229 231 236 242 247 248 248 256 262 259 261 264 264 263 265 268 271 270 273 275 273 274 275 273 273 277 278 275 274 275 274
257 258 258 254 252 249 241 232 224 223 227 230 229 227 226 227 230 230 229 234 242 246 242 243 253 262 262 260 262 265 264 266 268 263 258 258 255 252 250 243 240 240 239 239 239 239 244 249 254 255 249 241 235 232 229 225 228 236 246 252 254 263 274 277 278 277 275 273 274 276 277 274 275 275 272 272 274 274 275 277 276 274 274 273 272
248 248 245 242 237 230 229 229 222 219 225 229 228 229 232 235 240 242 238 234 235 237 236 238 250 259 258 256 258 261 261 261 263 261 258 257 256 251 244 235 234 238 239 237 238 243 249 252 253 252 248 242 234 230 227 223 225 232 244 256 263 270 278 282 284 283 280 278 277 278 281 280 279 278 277 276 276 276 276 276 275 274 273 272 272
248 248 242 234 225 217 221 226 222 222 226 230 234 240 246 249 253 256 255 251 245 238 232 235 247 253 250 249 252 256 258 259 259 255 252 255 252 242 235 233 237 241 241 238 239 244 249 252 252 251 247 242 236 231 226 224 227 233 246 259 269 275 277 278 279 279 280 281 281 281 282 282 281 281 281 282 281 279 279 278 276 274 273 273 273
240 243 249 244 230 220 223 228 231 231 231 234 240 245 251 254 253 254 257 264 264 251 238 238 244 247 245 244 245 250 255 259 258 250 247 249 241 233 237 243 243 242 240 238 239 244 246 246 246 248 245 240 237 232 228 229 231 238 250 260 267 271 272 272 273 274 277 280 282 283 283 282 282 283 284 284 283 281 280 278 277 275 274 275 276
228 229 244 248 239 237 239 239 241 242 239 242 246 247 253 258 258 257 260 268 269 254 242 241 243 245 247 245 245 248 251 259 261 252 245 240 231 233 245 250 246 243 240 240 243 245 242 238 240 243 239 236 236 234 233 234 237 243 252 258 262 264 265 266 269 273 277 280 282 284 285 286 286 287 287 285 282 280 278 277 277 276 274 273 276
236 233 240 240 238 246 259 257 248 246 246 252 254 254 257 261 264 266 265 266 262 249 242 242 242 246 253 253 251 251 254 259 260 251 241 235 235 241 248 250 248 245 243 243 243 238 232 229 233 234 231 232 234 235 236 238 242 248 253 256 258 258 258 259 265 272 276 278 281 283 284 286 287 288 287 285 283 280 278 276 274 274 274 274 276
247 248 249 247 244 250 264 262 248 248 255 263 265 264 265 265 267 270 267 259 250 245 244 244 245 251 258 259 256 257 262 264 259 250 241 238 242 245 245 245 245 242 239 234 225 219 221 226 230 229 228 231 232 234 237 239 244 250 254 256 256 252 250 252 260 269 273 275 277 279 282 284 285 286 286 286 284 282 279 277 274 274 275 277 279
251 253 256 256 251 252 265 275 267 264 269 275 276 274 273 272 272 272 268 260 250 245 246 246 248 257 264 261 256 258 263 263 259 254 246 241 241 241 241 243 243 239 232 219 209 212 222 227 229 230 230 232 233 233 234 237 244 251 254 256 253 249 247 250 260 270 273 275 275 277 279 280 282 284 284 285 284 282 281 280 278 277 277 279 279
251 255 258 259 256 258 267 273 274 274 275 278 280 279 277 276 276 274 268 264 258 249 246 248 251 260 269 262 251 250 256 257 257 254 249 243 241 241 242 243 243 239 230 219 214 218 224 225 227 230 231 232 232 232 234 239 246 249 252 254 253 250 249 254 265 273 276 276 275 276 277 277 279 280 281 282 282 282 284 283 282 281 280 280 279
251 251 253 255 257 262 267 268 271 275 276 276 278 279 279 277 275 271 266 266 263 251 245 249 251 257 266 261 247 244 251 253 251 248 245 243 241 240 240 240 241 240 234 228 223 222 225 227 229 231 232 234 235 237 240 244 246 247 249 251 252 252 253 258 266 272 274 274 275 277 277 277 278 278 280 281 281 283 285 284 284 284 283 282 280
249 247 250 255 259 264 267 268 270 272 272 272 274 276 278 279 276 268 264 270 267 247 241 247 250 252 261 260 249 245 246 243 241 241 243 242 239 240 240 239 239 239 238 236 233 232 234 234 236 238 240 242 244 246 247 247 247 247 248 250 252 254 257 261 266 270 273 275 276 277 277 277 278 278 279 281 281 282 283 283 283 284 285 285 283
253 251 252 257 260 262 265 265 265 267 267 269 272 272 277 282 278 269 267 274 273 253 245 249 250 252 258 257 248 243 243 241 241 244 245 239 233 234 237 240 241 242 242 243 242 242 243 243 245 247 248 250 250 251 251 250 250 250 251 253 255 258 261 264 269 273 275 277 278 277 277 277 276 275 275 276 278 279 279 280 280 280 283 285 285
251 249 249 252 256 258 261 262 262 264 266 267 269 272 280 288 284 275 274 276 273 264 257 252 250 252 254 250 244 240 242 245 246 246 244 236 229 229 234 238 242 244 244 245 245 246 248 249 250 252 254 254 253 253 253 253 253 253 255 257 260 262 265 268 272 274 276 278 278 278 278 277 276 275 273 271 271 272 274 276 277 278 280 282 283
246 243 243 247 251 254 258 262 263 265 266 267 270 274 283 292 289 280 276 277 272 266 262 254 249 250 250 246 242 238 238 244 247 245 241 236 229 229 236 241 244 246 247 247 247 248 248 249 250 251 252 253 253 253 254 254 255 256 257 259 261 263 267 271 273 275 277 278 279 281 281 280 280 279 277 274 272 272 272 274 276 278 279 280 281
254 250 248 251 254 255 257 260 264 266 267 270 275 277 281 287 288 281 279 281 272 261 257 252 248 247 244 240 238 237 238 243 245 242 237 233 230 231 240 246 248 249 249 248 249 250 251 252 253 252 252 253 254 255 255 256 257 257 258 260 261 265 268 270 273 275 276 277 281 284 281 279 281 281 280 279 279 279 279 279 280 282 282 283 283
257 256 253 253 255 256 257 259 261 265 269 274 277 277 278 282 283 281 281 284 273 255 249 248 246 242 237 234 235 239 242 243 242 240 238 234 230 232 240 247 251 252 252 250 250 252 254 255 256 255 255 255 257 259 260 259 258 258 259 260 262 266 268 270 274 276 277 280 285 282 277 276 276 275 274 275 277 281 284 284 283 284 284 284 283
252 254 252 252 255 257 257 258 260 264 270 276 277 275 277 280 279 275 274 276 270 253 244 242 240 235 235 237 238 240 243 243 240 240 240 235 230 230 239 248 252 254 255 253 251 252 255 257 256 256 255 256 258 261 264 263 260 258 258 259 262 266 268 271 275 277 277 281 283 278 271 271 272 271 271 272 276 281 283 281 279 279 281 282 281
251 252 251 253 255 257 257 257 260 266 271 274 275 274 275 279 280 274 268 265 263 256 246 239 231 227 230 233 233 234 236 238 239 239 239 235 228 227 235 242 244 247 251 251 251 252 255 257 257 256 256 257 260 262 264 263 260 259 259 260 261 263 266 269 271 268 265 267 273 273 269 267 270 274 276 278 283 286 285 283 281 280 281 281 280
251 253 253 254 256 258 259 257 258 264 270 272 274 273 272 275 280 277 268 261 255 250 246 240 232 229 227 226 228 230 231 236 240 241 241 238 231 229 231 237 243 249 250 252 254 255 257 259 262 262 260 260 262 262 261 261 261 261 262 262 262 262 262 262 262 259 255 254 260 268 271 271 273 278 281 283 285 286 286 286 284 284 286 284 281
252 255 256 256 258 260 261 261 260 264 270 272 273 274 270 269 273 275 269 261 253 247 246 244 240 237 233 231 232 232 231 234 239 237 235 236 235 235 237 244 252 255 253 254 257 258 259 262 264 266 266 267 267 264 260 260 263 264 263 264 263 259 257 257 256 254 255 257 261 267 272 274 276 279 282 283 283 282 283 284 283 284 286 285 283
257 259 260 261 262 263 264 265 264 264 268 270 271 271 270 267 266 267 266 260 254 250 247 247 246 239 233 231 234 235 234 235 235 234 234 237 241 242 242 245 249 249 247 250 254 255 257 260 261 261 262 265 268 267 263 262 263 263 263 263 260 254 252 254 255 254 256 260 266 272 275 276 276 277 278 279 279 279 280 281 281 281 283 285 287
260 261 263 264 265 266 266 266 265 265 266 268 267 268 268 264 261 264 266 262 256 251 248 247 248 245 239 236 238 237 236 235 233 233 236 241 245 246 245 245 246 245 245 248 252 255 257 259 257 256 255 257 261 261 259 256 257 258 259 261 258 253 251 252 254 256 259 262 265 269 272 274 275 276 277 277 278 279 281 281 280 278 279 283 287
256 260 263 264 265 266 266 266 266 266 266 266 266 265 265 262 259 260 265 264 258 252 248 247 248 249 247 244 242 240 238 237 237 237 239 242 244 244 244 246 248 247 246 248 253 256 258 258 255 254 254 254 257 255 250 248 250 252 253 256 256 255 255 253 253 255 259 262 265 266 268 271 274 276 278 278 279 281 282 282 281 278 278 281 284
253 256 260 262 263 265 266 267 267 266 266 267 265 264 264 263 260 259 261 263 261 256 251 250 250 249 248 244 238 235 234 233 234 237 239 241 242 242 242 244 246 248 248 250 253 255 256 255 253 250 249 250 252 251 245 242 246 249 250 254 257 259 260 259 258 259 261 264 267 269 270 271 273 274 276 277 279 281 281 280 279 277 278 280 281
251 253 255 258 260 262 265 266 266 265 265 265 264 262 261 261 261 261 259 259 260 259 256 254 253 252 250 244 235 231 232 232 232 234 236 237 239 241 242 243 245 249 252 253 253 252 250 248 246 245 246 245 245 244 242 242 247 250 252 256 258 261 263 264 265 266 267 269 271 272 273 274 274 274 274 275 278 279 280 279 278 277 278 279 279
250 251 252 254 257 259 261 264 265 264 263 262 262 262 260 259 259 261 260 258 257 258 258 258 257 256 254 249 242 238 239 240 240 241 241 241 242 244 246 247 248 252 254 253 251 247 245 242 241 243 247 249 248 248 247 247 250 254 257 260 261 263 265 266 268 268 268 270 272 273 274 275 275 275 275 275 277 278 279 279 279 278 279 279 279
248 249 249 251 253 256 258 260 262 262 261 260 260 260 259 257 255 256 258 258 256 255 257 259 261 260 257 253 248 243 242 243 245 247 247 246 246 247 248 249 249 248 248 247 245 243 243 244 245 247 253 257 257 256 254 252 255 260 264 266 266 267 267 267 268 268 269 270 271 273 275 276 276 276 277 277 278 279 279 280 281 281 281 280 280
247 247 247 248 251 254 256 257 259 260 260 261 264 265 263 261 258 256 257 258 258 257 255 256 258 259 257 254 250 247 247 248 249 252 253 253 252 251 250 250 248 246 245 245 245 246 248 252 254 255 258 260 260 259 260 260 261 264 267 269 270 271 272 272 273 274 275 275 275 276 277 277 278 278 279 279 280 280 280 281 281 281 281 281 281
248 247 248 249 251 253 254 254 255 257 260 262 264 263 261 261 261 258 255 256 257 256 255 254 254 254 253 251 249 249 249 251 252 254 256 256 256 254 253 251 248 247 246 246 247 249 252 255 257 259 262 262 262 263 265 267 267 268 270 272 273 275 276 277 278 278 278 278 278 277 277 278 278 279 279 280 280 281 281 281 281 281 281 281 281
247 246 247 248 248 248 250 251 251 253 257 258 253 246 244 249 255 256 254 255 256 257 255 251 248 247 246 245 246 247 247 248 251 255 258 259 259 256 254 252 250 249 249 248 249 251 253 255 257 259 261 262 265 267 268 268 268 270 270 271 273 274 276 277 277 277 277 277 278 278 279 279 280 280 280 281 281 281 281 281 281 281 281 280 280
250 248 249 248 244 242 245 249 250 250 252 253 249 245 243 244 247 248 249 252 257 260 257 250 242 239 238 238 241 245 247 249 253 257 260 262 261 259 257 255 254 253 253 254 254 255 257 258 260 261 262 263 266 266 266 266 268 270 271 272 274 275 276 277 277 278 279 280 280 281 281 282 282 282 282 282 282 282 282 281 281 281 280 280 280
248 247 248 250 247 243 243 246 248 249 250 251 251 249 248 250 250 246 243 246 251 255 255 249 242 238 239 241 247 252 255 257 259 260 260 260 259 258 257 256 255 255 255 256 257 258 259 261 263 264 266 267 267 266 265 267 270 272 274 276 277 278 279 280 281 282 282 283 284 284 284 284 283 283 283 283 283 283 283 283 283 283 282 281 281
240 239 239 242 244 246 247 248 249 250 250 251 252 252 251 252 256 256 252 250 251 251 251 249 247 248 250 254 257 258 259 260 260 260 259 258 257 255 254 253 254 254 255 255 256 258 260 263 265 267 268 269 270 271 271 273 274 276 277 279 280 281 282 283 284 285 285 285 285 285 285 285 285 284 284 284 284 284 284 284 284 284 284 283 283
236 235 234 235 237 239 242 246 249 251 253 253 254 254 253 252 254 256 254 249 245 243 241 241 243 247 251 254 255 256 256 256 256 255 254 253 252 251 249 249 250 252 254 257 261 265 268 271 273 274 275 275 276 277 277 277 278 279 281 282 283 283 283 283 284 285 285 285 285 286 286 286 286 286 285 285 285 285 285 285 284 285 285 285 285
235 234 234 234 234 234 235 238 240 244 247 248 248 247 246 244 244 246 246 245 244 242 241 240 241 243 246 248 249 250 251 252 253 252 252 253 254 255 255 256 259 262 265 268 272 274 276 277 278 278 278 278 279 280 280 281 282 283 284 284 285 285 285 285 285 284 285 285 285 285 285 285 285 285 285 285 284 284 284 284 284 284 285 285 286
243 243 243 244 245 246 246 244 243 243 243 245 245 244 245 245 245 245 245 247 249 250 250 250 250 251 253 254 253 253 253 255 256 256 257 259 262 264 266 267 269 271 272 273 274 275 275 275 276 277 279 279 280 281 282 283 284 284 285 285 285 285 285 285 285 284 284 284 284 284 284 284 284 284 284 284 284 284 284 284 285 285 285 285 285
Height
5776 5778 5781 5784 5784 5785 5786 5782 5775 5771 5775 5779 5780 5780 5779 5779 5779 5779 5779 5780 5781 5782 5783 5785 5787 5788 5789 5790 5791 5793 5793 5793 5794 5795 5797 5798 5798 5799 5799 5799 5800 5801 5802 5803 5804 5804 5804 5805 5806 5807 5807 5807 5807 5807 5808 5809 5810 5812 5812 5812 5812 5813 5813 5813 5813 5814 5814 5814 5814 5815 5815 5816 5815 5815 5815 5814 5815 5816 5815 5816 5816 5816 5816 5816 5816
5776 5777 5779 5780 5780 5779 5783 5785 5780 5773 5772 5775 5774 5772 5774 5774 5775 5775 5775 5776 5777 5777 5778 5780 5782 5785 5788 5789 5790 5791 5790 5790 5791 5793 5794 5796 5797 5797 5798 5798 5799 5800 5800 5801 5802 5802 5803 5804 5805 5805 5806 5806 5805 5805 5806 5808 5809 5810 5811 5811 5811 5812 5812 5812 5812 5812 5813 5813 5813 5813 5814 5815 5814 5814 5815 5814 5814 5815 5815 5815 5816 5816 5816 5816 5815
5772 5774 5775 5776 5777 5776 5778 5781 5781 5776 5772 5772 5769 5769 5771 5773 5774 5775 5775 5775 5776 5776 5776 5777 5781 5785 5787 5787 5787 5787 5788 5787 5788 5790 5792 5794 5795 5795 5796 5797 5798 5798 5799 5799 5800 5801 5802 5803 5803 5804 5804 5804 5804 5804 5804 5805 5807 5808 5809 5810 5810 5810 5811 5811 5811 5812 5812 5812 5812 5812 5813 5813 5813 5813 5814 5814 5814 5815 5815 5815 5815 5815 5815 5815 5815
5765 5769 5772 5773 5774 5775 5776 5778 5780 5777 5772 5770 5769 5771 5773 5774 5776 5776 5776 5776 5777 5777 5779 5780 5781 5783 5783 5783 5783 5785 5786 5785 5785 5788 5790 5791 5792 5793 5794 5795 5796 5797 5797 5797 5798 5800 5801 5802 5802 5802 5803 5803 5804 5804 5804 5804 5805 5806 5807 5808 5808 5809 5810 5810 5810 5811 5811 5811 5811 5812 5812 5812 5812 5812 5813 5813 5813 5814 5814 5814 5814 5815 5814 5814 5815
5762 5767 5770 5771 5773 5774 5774 5774 5775 5772 5769 5770 5771 5773 5776 5776 5776 5776 5776 5777 5779 5781 5782 5781 5781 5781 5782 5782 5782 5784 5785 5786 5785 5786 5788 5789 5790 5790 5791 5792 5794 5795 5796 5796 5797 5799 5800 5800 5800 5801 5802 5803 5803 5804 5804 5804 5805 5805 5806 5806 5806 5807 5808 5809 5809 5810 5810 5810 5810 5810 5811 5811 5811 5811 5812 5812 5813 5813 5813 5813 5814 5814 5814 5814 5814
5761 5765 5767 5769 5771 5771 5770 5770 5769 5766 5767 5771 5772 5774 5775 5774 5775 5775 5777 5778 5780 5782 5781 5780 5780 5781 5783 5783 5782 5783 5785 5786 5785 5785 5786 5787 5787 5788 5790 5791 5792 5793 5794 5795 5796 5797 5798 5798 5799 5800 5801 5802 5802 5803 5803 5803 5804 5803 5804 5804 5804 5805 5806 5807 5808 5808 5809 5809 5809 5809 5809 5810 5810 5811 5811 5811 5812 5812 5812 5812 5813 5813 5813 5813 5813
5758 5760 5763 5766 5768 5767 5766 5766 5765 5765 5769 5771 5771 5772 5773 5772 5773 5774 5777 5779 5780 5781 5780 5779 5780 5781 5782 5782 5782 5782 5783 5784 5784 5785 5785 5786 5787 5788 5789 5790 5792 5792 5792 5794 5795 5796 5797 5797 5798 5798 5800 5800 5800 5801 5801 5802 5802 5802 5803 5803 5803 5804 5805 5805 5806 5807 5807 5807 5808 5808 5808 5809 5809 5810 5810 5810 5811 5811 5811 5811 5811 5812 5812 5812 5812
5755 5757 5759 5763 5764 5764 5762 5761 5764 5765 5767 5769 5770 5771 5771 5771 5771 5773 5776 5777 5778 5779 5780 5780 5780 5780 5781 5781 5781 5781 5781 5782 5783 5785 5785 5786 5787 5787 5788 5789 5791 5790 5790 5791 5793 5794 5795 5796 5797 5797 5798 5799 5799 5800 5800 5801 5801 5801 5802 5802 5802 5803 5804 5804 5805 5805 5806 5806 5807 5807 5807 5808 5808 5809 5809 5809 5809 5810 5810 5810 5810 5811 5811 5811 5811
5753 5754 5756 5758 5760 5760 5758 5759 5763 5762 5763 5768 5769 5769 5769 5769 5770 5771 5774 5775 5776 5778 5779 5779 5779 5779 5779 5779 5779 5779 5780 5781 5783 5784 5784 5785 5785 5786 5787 5788 5789 5789 5788 5790 5791 5792 5793 5794 5795 5796 5796 5797 5798 5799 5799 5799 5800 5800 5800 5801 5801 5802 5803 5803 5803 5804 5804 5805 5805 5806 5806 5807 5807 5807 5808 5808 5808 5808 5809 5809 5809 5810 5810 5810 5810
5750 5751 5752 5753 5753 5754 5754 5757 5760 5758 5762 5767 5766 5765 5765 5765 5767 5770 5771 5773 5774 5775 5775 5776 5776 5776 5777 5777 5778 5778 5779 5781 5781 5782 5782 5783 5783 5784 5785 5787 5788 5787 5787 5789 5789 5789 5791 5792 5793 5794 5795 5796 5797 5797 5798 5798 5798 5799 5799 5800 5801 5801 5802 5801 5802 5802 5803 5803 5804 5805 5805 5805 5806 5806 5807 5807 5807 5807 5807 5807 5808 5808 5808 5808 5808
5747 5748 5749 5749 5749 5750 5751 5754 5756 5755 5760 5764 5763 5762 5762 5762 5765 5768 5769 5771 5771 5771 5772 5773 5773 5774 5776 5777 5777 5778 5779 5779 5780 5780 5780 5780 5781 5782 5783 5784 5786 5787 5787 5788 5788 5788 5790 5791 5792 5793 5794 5795 5796 5796 5797 5797 5797 5798 5798 5799 5799 5800 5800 5800 5800 5801 5802 5802 5803 5804 5804 5804 5805 5805 5806 5805 5806 5806 5806 5806 5806 5806 5807 5807 5807
5745 5746 5746 5745 5746 5748 5748 5750 5752 5753 5756 5760 5760 5760 5759 5760 5763 5765 5767 5768 5767 5768 5770 5771 5771 5772 5773 5774 5775 5776 5777 5777 5778 5778 5778 5778 5778 5779 5781 5782 5783 5785 5786 5787 5787 5787 5789 5789 5790 5792 5792 5794 5794 5795 5796 5796 5796 5797 5797 5798 5798 5799 5799 5799 5799 5800 5801 5801 5802 5802 5803 5803 5803 5803 5804 5804 5804 5805 5805 5805 5805 5805 5805 5805 5805
5743 5743 5742 5742 5743 5745 5746 5748 5751 5752 5754 5755 5756 5757 5758 5759 5760 5762 5764 5765 5764 5765 5768 5769 5769 5769 5769 5770 5771 5773 5774 5774 5775 5776 5776 5776 5777 5778 5779 5780 5781 5782 5784 5784 5785 5786 5787 5788 5789 5790 5791 5792 5793 5794 5794 5795 5795 5796 5796 5796 5797 5797 5798 5798 5798 5799 5799 5800 5800 5801 5801 5801 5801 5802 5802 5802 5803 5803 5803 5804 5804 5804 5804 5804 5804
5741 5740 5739 5739 5741 5743 5745 5747 5749 5751 5751 5751 5752 5754 5755 5756 5757 5759 5761 5761 5761 5763 5765 5766 5766 5766 5766 5766 5767 5768 5770 5771 5772 5773 5774 5774 5776 5777 5777 5778 5779 5780 5781 5782 5783 5784 5785 5786 5787 5788 5789 5790 5791 5793 5793 5794 5794 5794 5794 5795 5796 5796 5797 5797 5797 5797 5798 5799 5799 5800 5800 5800 5800 5801 5801 5801 5801 5801 5802 5802 5803 5803 5803 5803 5803
5739 5738 5737 5737 5738 5740 5741 5743 5746 5747 5747 5746 5747 5750 5750 5752 5754 5756 5758 5758 5759 5760 5761 5763 5763 5763 5763 5763 5764 5765 5766 5768 5769 5770 5771 5772 5774 5774 5775 5776 5777 5778 5779 5779 5781 5782 5783 5784 5786 5787 5788 5789 5790 5791 5792 5793 5793 5793 5793 5794 5795 5795 5796 5796 5796 5797 5797 5798 5798 5799 5799 5799 5799 5799 5800 5799 5800 5800 5801 5801 5801 5801 5802 5802 5802
5736 5736 5735 5735 5736 5737 5737 5739 5741 5742 5740 5739 5741 5744 5746 5748 5750 5752 5754 5755 5756 5757 5758 5759 5760 5760 5760 5761 5761 5762 5764 5765 5766 5767 5768 5769 5770 5771 5772 5773 5775 5776 5777 5778 5779 5780 5781 5783 5784 5786 5787 5787 5788 5789 5790 5791 5791 5792 5792 5792 5793 5794 5794 5795 5795 5796 5796 5797 5797 5797 5798 5798 5798 5798 5798 5798 5798 5799 5799 5800 5800 5800 5800 5800 5801
5732 5732 5732 5731 5731 5733 5734 5735 5736 5737 5738 5738 5740 5744 5747 5749 5751 5752 5753 5752 5753 5754 5755 5756 5756 5757 5757 5757 5758 5759 5761 5762 5763 5764 5765 5766 5767 5768 5769 5770 5772 5774 5775 5776 5777 5778 5780 5781 5783 5784 5785 5786 5787 5788 5789 5789 5790 5790 5791 5791 5791 5792 5793 5793 5794 5794 5795 5795 5795 5796 5796 5796 5796 5796 5797 5797 5797 5797 5798 5798 5798 5798 5798 5799 5799
5729 5729 5728 5727 5728 5730 5731 5733 5735 5736 5737 5740 5743 5746 5749 5751 5751 5753 5753 5752 5751 5751 5751 5752 5753 5753 5753 5753 5754 5755 5757 5758 5760 5761 5763 5764 5764 5765 5767 5769 5771 5772 5772 5774 5775 5776 5778 5780 5781 5783 5784 5785 5786 5786 5787 5787 5788 5789 5789 5790 5790 5790 5791 5791 5792 5792 5793 5793 5793 5794 5794 5794 5794 5794 5795 5795 5796 5796 5797 5797 5797 5797 5797 5797 5798
5728 5728 5728 5727 5727 5729 5731 5733 5734 5734 5736 5739 5741 5744 5746 5748 5748 5749 5749 5750 5751 5751 5751 5751 5750 5749 5749 5750 5751 5752 5754 5756 5757 5759 5761 5761 5762 5764 5766 5767 5768 5769 5770 5772 5773 5774 5775 5777 5779 5781 5782 5783 5784 5784 5785 5786 5786 5787 5788 5788 5788 5789 5789 5789 5790 5790 5790 5791 5791 5791 5792 5792 5793 5793 5793 5794 5794 5795 5795 5795 5795 5795 5795 5795 5795
5726 5727 5727 5728 5727 5728 5729 5730 5731 5732 5734 5737 5738 5740 5743 5744 5745 5745 5746 5748 5748 5748 5749 5749 5749 5748 5747 5748 5750 5751 5753 5754 5756 5757 5759 5759 5761 5762 5764 5765 5766 5767 5768 5769 5770 5771 5773 5775 5777 5779 5780 5781 5782 5783 5783 5784 5785 5786 5786 5787 5787 5787 5787 5788 5788 5788 5788 5789 5789 5789 5789 5790 5790 5791 5791 5792 5792 5793 5793 5793 5793 5793 5793 5793 5794
5724 5725 5726 5727 5727 5728 5729 5730 5730 5732 5733 5734 5736 5738 5740 5741 5742 5743 5743 5744 5744 5745 5745 5745 5746 5746 5747 5748 5749 5751 5753 5754 5755 5756 5757 5758 5760 5761 5762 5763 5764 5765 5766 5767 5768 5769 5770 5773 5775 5777 5778 5779 5780 5781 5782 5782 5783 5784 5785 5785 5785 5786 5786 5786 5787 5787 5787 5787 5787 5787 5788 5788 5788 5789 5789 5790 5790 5790 5791 5791 5791 5791 5791 5791 5792
5724 5724 5725 5725 5725 5727 5729 5731 5731 5732 5732 5733 5735 5736 5737 5738 5739 5739 5739 5739 5739 5741 5743 5743 5744 5745 5746 5748 5749 5750 5752 5753 5753 5754 5756 5757 5758 5760 5761 5762 5763 5763 5764 5765 5766 5767 5769 5771 5773 5774 5776 5777 5778 5779 5780 5781 5781 5782 5783 5783 5783 5784 5784 5785 5785 5786 5786 5786 5786 5786 5786 5786 5786 5787 5787 5788 5788 5788 5789 5789 5790 5789 5789 5789 5790
5723 5723 5724 5724 5725 5727 5729 5731 5732 5732 5733 5733 5734 5734 5735 5736 5736 5736 5736 5736 5736 5738 5740 5742 5743 5743 5744 5745 5747 5749 5750 5751 5752 5753 5755 5756 5757 5758 5759 5760 5761 5762 5763 5764 5765 5766 5768 5770 5771 5773 5774 5775 5776 5777 5778 5779 5780 5780 5781 5781 5782 5782 5782 5783 5783 5784 5784 5784 5785 5785 5785 5785 5785 5785 5785 5785 5786 5786 5786 5787 5787 5787 5787 5787 5788
5722 5722 5722 5723 5724 5726 5728 5731 5732 5732 5733 5733 5732 5732 5733 5734 5734 5733 5733 5733 5734 5736 5738 5740 5741 5742 5742 5743 5745 5747 5748 5750 5751 5752 5753 5754 5755 5756 5757 5758 5759 5761 5762 5763 5764 5765 5767 5768 5769 5771 5772 5773 5774 5775 5776 5777 5778 5778 5779 5779 5780 5780 5781 5781 5782 5782 5783 5783 5783 5783 5783 5783 5783 5783 5783 5783 5783 5783 5784 5785 5785 5784 5784 5785 5785
5720 5720 5720 5720 5722 5724 5727 5730 5731 5731 5732 5731 5731 5731 5730 5731 5731 5731 5731 5730 5730 5733 5736 5738 5739 5740 5740 5741 5742 5744 5746 5748 5750 5751 5752 5752 5753 5753 5754 5756 5757 5759 5760 5761 5762 5764 5765 5766 5767 5769 5770 5771 5773 5774 5775 5775 5776 5776 5777 5778 5778 5778 5779 5779 5780 5780 5780 5780 5780 5781 5781 5781 5781 5781 5781 5781 5781 5781 5781 5782 5782 5782 5782 5782 5782
5718 5718 5719 5719 5720 5723 5726 5728 5729 5730 5730 5729 5729 5728 5728 5728 5728 5728 5728 5727 5727 5730 5733 5735 5736 5737 5738 5739 5740 5742 5744 5746 5748 5749 5749 5750 5750 5751 5752 5753 5755 5756 5758 5759 5761 5762 5763 5764 5766 5767 5768 5770 5771 5772 5773 5773 5774 5774 5775 5776 5776 5776 5777 5777 5778 5778 5778 5778 5778 5778 5778 5778 5778 5778 5778 5778 5778 5778 5778 5779 5779 5780 5779 5779 5779
5716 5717 5718 5719 5720 5722 5724 5726 5727 5728 5728 5727 5727 5726 5726 5725 5725 5724 5724 5724 5726 5728 5730 5732 5733 5735 5736 5738 5740 5742 5743 5745 5746 5747 5747 5748 5748 5749 5750 5751 5753 5754 5756 5757 5759 5760 5761 5762 5764 5765 5766 5767 5769 5770 5771 5771 5772 5773 5773 5774 5774 5774 5775 5775 5775 5775 5775 5775 5775 5775 5775 5775 5775 5775 5775 5775 5775 5775 5775 5775 5776 5776 5777 5777 5776
5715 5716 5717 5718 5719 5720 5723 5725 5725 5726 5725 5725 5724 5724 5724 5723 5722 5722 5723 5723 5724 5725 5727 5729 5731 5733 5734 5736 5738 5740 5742 5743 5745 5746 5746 5746 5746 5747 5749 5749 5751 5752 5753 5755 5756 5758 5759 5760 5762 5763 5764 5765 5766 5767 5768 5769 5770 5771 5771 5772 5772 5772 5773 5773 5773 5772 5772 5772 5772 5771 5771 5771 5772 5772 5772 5772 5772 5772 5772 5772 5772 5773 5774 5774 5774
5714 5715 5717 5717 5718 5719 5721 5723 5723 5723 5723 5723 5722 5722 5722 5721 5720 5721 5721 5721 5722 5723 5725 5727 5728 5730 5732 5734 5736 5738 5740 5741 5742 5743 5744 5744 5745 5746 5747 5747 5748 5749 5750 5752 5754 5755 5757 5758 5759 5760 5761 5762 5764 5765 5766 5767 5768 5769 5769 5770 5770 5770 5770 5770 5770 5770 5769 5769 5768 5768 5768 5768 5769 5769 5769 5769 5769 5769 5769 5769 5769 5769 5769 5770 5771
5713 5714 5715 5716 5716 5718 5719 5721 5721 5722 5722 5721 5721 5720 5720 5719 5719 5719 5720 5720 5721 5721 5722 5723 5725 5728 5730 5732 5733 5735 5737 5738 5739 5740 5741 5742 5742 5744 5744 5745 5746 5747 5748 5750 5751 5753 5754 5755 5757 5757 5758 5760 5761 5762 5763 5765 5766 5767 5767 5767 5768 5768 5768 5768 5767 5767 5767 5766 5766 5766 5765 5765 5766 5766 5766 5766 5766 5766 5766 5766 5766 5766 5766 5766 5767
5712 5713 5714 5714 5715 5716 5718 5719 5720 5720 5720 5720 5719 5718 5718 5717 5717 5718 5719 5719 5719 5720 5720 5721 5723 5725 5727 5729 5731 5732 5734 5735 5736 5738 5739 5740 5741 5742 5742 5743 5744 5745 5746 5748 5749 5751 5752 5753 5754 5755 5756 5758 5758 5759 5760 5762 5763 5764 5765 5765 5765 5765 5765 5765 5765 5764 5764 5764 5764 5763 5762 5763 5763 5763 5763 5763 5763 5763 5763 5763 5763 5763 5763 5763 5763
5711 5712 5713 5713 5714 5715 5716 5717 5718 5718 5718 5718 5717 5717 5716 5716 5716 5717 5718 5718 5718 5718 5719 5720 5721 5723 5725 5726 5728 5730 5731 5732 5734 5735 5736 5737 5738 5739 5741 5742 5743 5744 5745 5746 5747 5748 5749 5750 5751 5752 5754 5755 5755 5756 5758 5759 5760 5761 5762 5762 5763 5763 5763 5762 5762 5762 5762 5763 5762 5761 5760 5760 5760 5760 5761 5761 5761 5761 5761 5760 5760 5760 5760 5760 5760
5710 5710 5711 5712 5712 5713 5714 5715 5716 5716 5716 5716 5716 5716 5715 5715 5715 5716 5717 5718 5718 5718 5718 5719 5720 5721 5723 5724 5726 5728 5729 5730 5731 5732 5733 5734 5736 5737 5739 5740 5741 5742 5743 5743 5744 5746 5746 5747 5748 5749 5751 5752 5753 5754 5755 5756 5756 5757 5758 5758 5759 5759 5759 5759 5759 5759 5759 5759 5758 5757 5757 5757 5758 5758 5758 5758 5759 5758 5758 5758 5758 5757 5757 5756 5756
5708 5708 5709 5710 5710 5711 5711 5713 5714 5714 5715 5715 5714 5715 5715 5714 5714 5715 5715 5716 5718 5718 5718 5718 5719 5720 5721 5723 5724 5726 5727 5728 5728 5729 5731 5732 5734 5735 5737 5738 5739 5740 5741 5741 5742 5743 5744 5744 5745 5747 5748 5749 5750 5751 5752 5752 5753 5754 5755 5755 5756 5756 5756 5756 5756 5756 5755 5755 5754 5753 5754 5754 5755 5755 5755 5755 5755 5755 5755 5755 5755 5754 5753 5753 5753
5705 5706 5707 5707 5708 5708 5709 5710 5711 5712 5713 5713 5713 5713 5713 5714 5713 5713 5714 5715 5716 5717 5717 5718 5719 5719 5720 5721 5723 5724 5726 5726 5727 5728 5729 5730 5732 5733 5734 5736 5737 5738 5739 5739 5740 5740 5741 5741 5743 5744 5745 5746 5747 5748 5749 5749 5750 5750 5751 5752 5753 5753 5753 5753 5753 5753 5752 5751 5751 5751 5751 5751 5752 5752 5751 5751 5751 5751 5751 5751 5751 5751 5750 5750 5750
5703 5703 5704 5704 5705 5706 5706 5707 5708 5710 5710 5711 5711 5711 5712 5712 5712 5712 5712 5713 5715 5716 5716 5717 5717 5718 5719 5720 5721 5722 5723 5724 5725 5726 5727 5728 5729 5730 5731 5733 5734 5735 5736 5736 5737 5737 5738 5739 5740 5741 5742 5743 5743 5744 5746 5746 5747 5747 5748 5749 5750 5750 5750 5749 5749 5749 5749 5749 5749 5749 5748 5748 5749 5748 5748 5748 5748 5748 5747 5747 5747 5747 5747 5747 5747
5700 5700 5701 5701 5702 5703 5704 5704 5705 5707 5708 5708 5709 5709 5710 5710 5711 5710 5710 5712 5713 5714 5715 5716 5716 5717 5718 5718 5719 5720 5721 5722 5723 5724 5725 5725 5726 5727 5728 5730 5730 5732 5733 5733 5733 5734 5735 5736 5737 5737 5738 5739 5740 5741 5742 5743 5744 5744 5744 5745 5746 5746 5746 5746 5746 5746 5745 5746 5746 5746 5745 5745 5745 5744 5744 5744 5744 5745 5744 5744 5744 5744 5743 5743 5743
5697 5698 5698 5699 5700 5700 5701 5702 5703 5704 5705 5706 5707 5707 5708 5708 5709 5709 5709 5709 5711 5712 5713 5714 5715 5716 5717 5716 5717 5718 5719 5720 5720 5721 5722 5722 5723 5725 5726 5727 5727 5728 5729 5730 5731 5731 5732 5733 5734 5734 5735 5735 5736 5737 5738 5739 5740 5740 5741 5741 5742 5742 5743 5743 5743 5743 5742 5742 5742 5742 5742 5742 5742 5741 5741 5740 5741 5741 5741 5741 5740 5740 5739 5739 5739
5695 5695 5696 5696 5697 5697 5698 5699 5700 5701 5702 5703 5704 5705 5705 5706 5706 5707 5707 5707 5708 5709 5711 5712 5713 5714 5715 5715 5715 5716 5717 5717 5718 5718 5720 5720 5721 5722 5723 5724 5724 5725 5726 5727 5728 5728 5729 5730 5730 5731 5731 5732 5732 5733 5734 5735 5736 5737 5737 5737 5738 5739 5739 5739 5740 5739 5739 5739 5738 5738 5739 5739 5738 5738 5737 5736 5736 5737 5737 5737 5736 5735 5735 5735 5734
5692 5693 5693 5694 5694 5695 5695 5696 5697 5698 5699 5700 5701 5702 5702 5703 5703 5704 5704 5705 5705 5706 5708 5709 5710 5711 5712 5713 5713 5714 5714 5715 5716 5716 5718 5719 5719 5719 5720 5721 5721 5722 5723 5724 5725 5725 5726 5726 5727 5727 5728 5728 5729 5730 5731 5732 5732 5733 5733 5734 5735 5735 5736 5736 5736 5736 5735 5735 5735 5734 5734 5735 5734 5734 5734 5733 5732 5732 5732 5732 5731 5731 5730 5730 5729
5689 5689 5690 5691 5691 5692 5693 5693 5694 5695 5696 5696 5697 5698 5699 5700 5700 5701 5701 5702 5703 5703 5704 5705 5706 5707 5708 5710 5711 5711 5712 5713 5713 5714 5715 5716 5717 5717 5718 5718 5719 5719 5720 5721 5721 5722 5723 5723 5724 5725 5725 5726 5726 5727 5728 5729 5729 5729 5730 5731 5732 5732 5733 5733 5732 5732 5732 5732 5731 5730 5729 5730 5729 5729 5729 5728 5728 5727 5727 5726 5726 5725 5724 5723 5723
5685 5686 5687 5688 5688 5689 5690 5690 5691 5692 5693 5693 5694 5694 5695 5696 5697 5697 5698 5699 5700 5700 5701 5702 5703 5704 5705 5706 5707 5708 5709 5710 5710 5711 5712 5713 5714 5715 5715 5715 5716 5716 5717 5718 5719 5719 5720 5721 5722 5723 5723 5724 5724 5725 5725 5726 5726 5726 5726 5727 5728 5728 5728 5728 5728 5727 5727 5728 5727 5726 5725 5725 5724 5724 5723 5723 5722 5721 5721 5720 5719 5718 5718 5716 5716
5681 5682 5683 5684 5685 5686 5687 5687 5688 5689 5690 5690 5690 5690 5691 5692 5693 5694 5694 5695 5696 5697 5698 5699 5700 5700 5701 5702 5703 5705 5706 5707 5707 5708 5709 5710 5711 5711 5712 5712 5713 5713 5714 5715 5716 5716 5717 5718 5719 5720 5721 5721 5722 5722 5723 5723 5723 5722 5722 5723 5723 5723 5723 5723 5723 5722 5722 5722 5722 5721 5721 5720 5719 5718 5718 5717 5716 5715 5715 5714 5713 5711 5710 5709 5708
5677 5678 5680 5681 5683 5683 5684 5684 5685 5686 5687 5688 5688 5688 5688 5688 5690 5691 5691 5692 5693 5694 5695 5696 5697 5697 5698 5699 5700 5701 5702 5703 5704 5705 5705 5706 5707 5707 5708 5708 5709 5709 5710 5711 5712 5712 5713 5714 5715 5715 5717 5717 5718 5719 5720 5720 5719 5718 5719 5718 5718 5718 5718 5718 5718 5718 5717 5717 5716 5716 5715 5714 5714 5713 5712 5711 5710 5709 5708 5707 5706 5704 5703 5702 5700
5674 5675 5676 5678 5679 5680 5680 5681 5682 5683 5684 5685 5686 5687 5686 5687 5687 5688 5688 5689 5690 5691 5692 5693 5693 5694 5695 5696 5697 5698 5699 5700 5701 5701 5702 5702 5703 5703 5703 5704 5704 5705 5706 5707 5707 5708 5708 5709 5710 5711 5712 5712 5713 5716 5716 5714 5713 5714 5714 5714 5713 5713 5713 5713 5713 5712 5712 5711 5710 5710 5709 5709 5708 5707 5706 5705 5704 5702 5701 5700 5699 5697 5695 5693 5692
5671 5672 5673 5674 5675 5676 5676 5677 5678 5680 5681 5681 5682 5683 5684 5684 5685 5686 5686 5687 5687 5688 5689 5690 5691 5692 5693 5693 5694 5695 5696 5697 5697 5698 5698 5699 5699 5699 5699 5700 5700 5701 5701 5702 5703 5703 5703 5704 5705 5706 5707 5708 5710 5711 5710 5708 5708 5709 5709 5708 5708 5708 5708 5708 5707 5706 5706 5705 5704 5703 5702 5702 5701 5700 5699 5698 5696 5695 5695 5693 5691 5689 5687 5685 5683
5668 5669 5670 5671 5671 5672 5673 5674 5675 5676 5677 5677 5678 5680 5680 5681 5683 5684 5684 5685 5685 5686 5687 5688 5689 5689 5690 5691 5691 5692 5692 5693 5694 5694 5695 5695 5695 5695 5696 5696 5696 5697 5697 5697 5698 5699 5699 5700 5700 5700 5702 5704 5704 5705 5705 5704 5703 5703 5703 5703 5703 5703 5702 5702 5701 5699 5699 5698 5697 5695 5695 5694 5693 5692 5691 5690 5689 5687 5687 5686 5683 5680 5678 5675 5673
5665 5666 5667 5668 5669 5669 5670 5670 5671 5672 5672 5673 5674 5676 5677 5678 5679 5680 5681 5682 5682 5683 5684 5685 5686 5686 5687 5687 5688 5688 5689 5689 5690 5690 5691 5691 5691 5692 5692 5692 5692 5693 5693 5693 5693 5694 5695 5696 5695 5695 5697 5698 5698 5698 5699 5699 5698 5698 5697 5697 5697 5697 5696 5695 5694 5693 5692 5691 5690 5688 5687 5686 5685 5684 5683 5682 5680 5679 5678 5677 5675 5671 5667 5665 5663
5662 5663 5664 5664 5665 5666 5667 5667 5668 5668 5669 5670 5671 5672 5673 5674 5675 5676 5677 5678 5679 5679 5680 5681 5682 5682 5683 5684 5684 5684 5685 5685 5686 5686 5687 5687 5687 5688 5688 5688 5688 5689 5689 5688 5688 5689 5690 5690 5689 5689 5691 5692 5691 5691 5692 5692 5692 5691 5691 5691 5690 5690 5690 5689 5688 5687 5686 5684 5683 5682 5680 5678 5677 5676 5674 5673 5672 5669 5667 5667 5666 5662 5658 5655 5653
5659 5660 5660 5661 5662 5663 5663 5664 5665 5665 5666 5666 5667 5668 5669 5670 5671 5672 5673 5674 5674 5675 5676 5677 5678 5678 5679 5680 5680 5681 5681 5681 5682 5682 5683 5683 5683 5683 5684 5684 5684 5684 5684 5684 5683 5684 5685 5685 5684 5684 5685 5686 5686 5686 5686 5685 5685 5685 5684 5683 5683 5682 5682 5682 5681 5680 5679 5677 5676 5674 5673 5671 5669 5667 5666 5664 5663 5661 5659 5657 5656 5653 5649 5646 5644
5656 5656 5657 5658 5658 5659 5660 5660 5661 5661 5662 5663 5663 5664 5665 5666 5666 5667 5668 5669 5670 5671 5671 5672 5673 5674 5675 5675 5676 5677 5677 5677 5677 5678 5678 5678 5678 5678 5678 5679 5679 5679 5679 5679 5679 5680 5680 5680 5680 5680 5680 5681 5681 5680 5680 5679 5679 5678 5677 5677 5676 5675 5675 5674 5673 5672 5671 5670 5668 5667 5664 5662 5661 5659 5657 5655 5653 5651 5650 5648 5646 5643 5640 5638 5635